Location: Santiago
(33.4378°S, 70.6505°W)
Time: 06:36:11
(UTC+00:00)

ISS - Pass Details

Date: 17 June 2024
Orbit: 410 x 424 km, 51.6° (Epoch: 12 July)

Event Time Altitude Azimuth Distance (km) Brightness Sun altitude
Rises 22:36:11 0° 288° (WNW) 2,384 2.3 -11.2°
Reaches altitude 10° 22:38:32 10° 273° (W) 1,521 0.4 -11.6°
Maximum altitude 22:41:26 25° 216° (SW) 912 -1.9 -12.2°
Enters shadow 22:44:09 11° 160° (SSE) 1,469 -1.4 -12.7°
